Notices

What's New in latest Release from April 7th, 2021:

- Updated Glossary, including Speed of Maximum Gust, and Total Hourly Precipitation

- Updated national and regional climate services offices contacts and prices information

- Addition of station inventory lists for 1981-2010, 1971-2000, and 1961-1990 Normals.

If you haven't already, please take our survey and provide feedback about our website: https://eccc.sondage-survey.ca/f/LanguageSelection.aspx?s=442ca660-fcf1-47c0-95a9-59707d6fd709

Hourly Data Report for December 24, 2020

CARBERRY CS
MANITOBA
Current Station Operator: ECCC - MSC

49°54'20.900" N
99°21'26.800" W
383.50 m
5010547
71170
WZE

Download Data

Hourly Data (December 2020)
Hourly Data Report for December 24, 2020
TIME
LST
Temp Definition
°C
Dew Point Definition
°C
Rel Hum Definition
%
Precip. Amount Definition
mm

Wind Dir Definition
10's deg

Wind Spd Definition
km/h
Visibility Definition
km
Stn Press Definition
kPa
Hmdx Definition


Wind Chill Definition


Weather Definition


00:00 -26.6 -29.6 76 0.0 26 5   97.42   -32 LegendNANA
01:00 -27.6 -30.6 76 0.0 28 5   97.39   -33 LegendNANA
02:00 -28.2 -31.2 75 0.0 29 7   97.37   -35 LegendNANA
03:00 -27.7 -30.7 75 0.0 33 4   97.41   -32 LegendNANA
04:00 -26.9 -29.8 76 0.0 32 4   97.46   -31 LegendNANA
05:00 -26.3 -29.2 76 0.0 35 6   97.55   -32 LegendNANA
06:00 -27.0 -29.9 76 0.0 2 6   97.53   -33 LegendNANA
07:00 -27.1 -30.0 76 0.0 5 1   97.53   -28 LegendNANA
08:00 -26.3 -29.2 77 0.0 26 5   97.55   -31 LegendNANA
09:00 -26.1 -28.9 77 0.0 25 6   97.57   -32 LegendNANA
10:00 -25.6 -28.4 77 0.0 20 4   97.59   -30 LegendNANA
11:00 -24.0 -26.8 78 0.0 19 9   97.53   -31 LegendNANA
12:00 -22.7 -25.5 77 0.0 19 10   97.43   -30 LegendNANA
13:00 -21.1 -23.9 78 0.0 20 13   97.36   -30 LegendNANA
14:00 -20.3 -22.8 80 0.0 19 14   97.27   -29 LegendNANA
15:00 -19.2 -21.9 80 0.0 17 17   97.14   -29 LegendNANA
16:00 -18.3 -21.8 74 0.0 17 17   97.04   -28 LegendNANA
17:00 -17.2 -21.0 72 0.0 18 20   96.99   -27 LegendNANA
18:00 -15.8 -19.8 71 0.0 17 17   96.85   -24 LegendNANA
19:00 -14.9 -18.4 75 0.0 16 15   96.69   -23 LegendNANA
20:00 -13.5 -16.8 77 0.0 19 22   96.59   -23 LegendNANA
21:00 -13.8 -16.9 77 0.0 18 19   96.52   -22 LegendNANA
22:00 -14.0 -16.8 79 0.0 18 17   96.44   -22 LegendNANA
23:00 -13.1 -15.7 81 0.0 19 19   96.26   -22 LegendNANA

Notes on Data Quality.

Legend

  • E = Estimated
  • M = Missing
  • NA = Not Available*
  • [empty] = Indicates an unobserved value
Date modified: